Tracking 18840 objects as of 19-November-2017
HD Live streaming from Space Station
objects crossing your sky now

CZ-2D DEB

Track CZ-2D DEB now!
10-day predictions


NORAD ID: 35272
Int'l Code: 2005-024L
Perigee: 514.3 km
Apogee: 534.2 km
Inclination: 97.5 °
Period: 95.0 minutes
Semi major axis: 6895 km
RCS: 0.0215 m2 (small)
Launch date: July 5, 2005
Source: People's Republic of China (PRC)
Launch site: Jiuquan Satellite Launch Center, China (JSC)

Note: This is SATELLITE DEBRIS
aabbcc
Your satellite tracking list
Your tracking list is empty




NASA's NSSDC Master Catalog

Two Line Element Set (TLE):
1 35272U 05024L   17322.95161059  .00000661  00000-0  37587-4 0  9998
2 35272  97.5405   4.1728 0014442  45.0564  75.1972 15.16265556661367
Source of the keplerian elements: AFSPC